Location: Fredericksburg
(30.2750°N, 98.8720°W)
Time: 07:51:27
(UTC-05:00)

Daily predictions for brighter satellites

Satellite Brightness Start Highest point End
(mag) Time Altitude Azimuth Time Altitude Azimuth Time Altitude Azimuth
Skynet4D Del rocket 4.4 19:13:20 10° WSW 19:19:40 65° S 19:27:00 10° E
Cosmos 1626 2.4 19:18:35 10° N 19:22:10 43° E 19:25:43 10° SSE
ALOS 3.5 19:19:33 10° ESE 19:22:57 21° ENE 19:26:22 10° NNE
SL-14 R/B 4.2 19:19:20 10° NNW 19:23:06 54° W 19:26:53 10° S
Cosmos 1624 Rocket 4.0 19:20:41 10° NNW 19:25:56 87° ENE 19:31:11 10° SSE
Cosmos 2366 rocket 4.1 19:20:29 10° S 19:26:44 85° W 19:32:56 10° N
IRS-1A Rocket 4.4 19:23:05 10° SSE 19:28:53 82° ENE 19:34:49 10° N
Cosmos 1371 Rocket 4.5 19:23:54 10° NNW 19:29:14 70° WSW 19:34:30 10° S
APEX 3.2 19:27:58 10° S 19:31:28 43° ESE 19:34:23 10° NE
Hubble Space Telescope 2.8 19:33:08 10° SSW 19:35:43 16° SSE 19:38:19 10° ESE
Cosmos 158 Rocket 4.0 19:31:05 10° S 19:35:54 54° ESE 19:40:53 10° NNE
Abrixas 1.6 19:34:20 10° SW 19:36:30 84° NW 19:38:32 11° NE
Cosmos 2360 Rocket 2.5 19:31:38 10° N 19:37:01 43° ENE 19:42:22 10° SE
COSMOS 2428 4.0 19:36:22 10° NNE 19:40:23 19° ENE 19:44:03 11° ESE
COSMO-SKYMED 1 2.6 19:36:41 10° N 19:41:02 85° W 19:45:21 10° SSW
Thor Agena Rocket 4.2 19:36:38 10° NE 19:41:10 32° E 19:45:38 10° SSE
Cosmos 2219 3.5 19:36:57 10° S 19:42:22 45° ESE 19:47:48 10° NE
Cosmos 2322 Rocket 3.0 19:39:40 10° NNW 19:45:08 56° WSW 19:50:36 10° S
Cosmos 2297 Rocket 3.9 19:51:26 10° SE 19:52:50 13° ESE 19:52:50 13° ESE
Cosmos 44 3.1 19:51:17 10° SSW 19:55:41 81° WNW 20:00:01 10° NNE
FENGYUN 3A 3.8 19:50:45 10° SSE 19:55:53 48° ENE 20:01:04 10° N
Cosmos 1315 Rocket 2.9 19:52:07 10° N 19:56:07 54° E 20:00:07 10° SSE
Centaur D AC-29 2.5 19:41:05 10° W 19:56:08 63° S 19:59:13 18° ESE
Milstar 3 Cent rocket 4.4 19:46:52 10° W 19:57:30 38° SSW 20:03:17 10° SE
YAOGAN 1 3.5 19:54:10 10° S 19:58:21 52° W 20:02:35 10° NNW
Tiangong 1 3.1 19:57:09 10° W 19:59:17 21° SW 20:01:24 10° SSE
Cosmos 1821 Rocket 4.0 19:57:26 10° S 20:03:24 58° E 20:09:28 10° NNE
Cosmos 1934 Rocket 4.3 20:01:10 10° SSE 20:07:07 45° E 20:13:07 10° NNE
Cosmos 1269 Rocket 3.9 20:04:23 10° SSW 20:09:38 84° ESE 20:14:56 10° NNE
Cosmos 2322 3.6 20:04:19 10° NNW 20:10:01 69° ENE 20:15:39 10° SSE
Cosmos 2239 Rocket 4.4 20:04:31 10° S 20:10:34 67° E 20:16:39 10° NNE
Cosmos 2151 3.8 20:07:01 10° NNW 20:11:09 52° W 20:15:15 10° S
SPOT 3 Rocket 3.7 20:06:33 10° S 20:11:43 77° WSW 20:16:56 10° NNW
Centaur AC-112 2.9 20:04:44 10° WSW 20:12:52 52° S 20:14:08 31° ESE
ASTRO E2 2.6 20:11:08 10° W 20:15:08 81° N 20:16:30 40° E
USA 267 3.2 20:12:42 15° NE 20:18:14 65° SE 20:24:42 10° SSW
RESURS DK-1 2.5 20:15:00 10° NNW 20:19:07 76° WSW 20:23:12 10° SSE
Cosmos 44 Rocket 4.2 20:15:03 10° SW 20:19:35 47° WNW 20:24:07 10° NNE
Cosmos 1726 2.0 20:16:37 10° S 20:20:20 87° E 20:24:02 10° N
Aureole 2 4.3 20:17:17 10° NNW 20:20:32 85° ENE 20:24:16 10° SSE
Meteor 2-10 3.9 20:19:44 10° S 20:24:37 57° E 20:29:35 10° NNE
Cosmos 2219 Rocket 3.1 20:20:48 10° N 20:25:02 28° NE 20:25:02 28° NE
Cosmos 2098 Rocket 3.3 20:22:59 10° S 20:26:58 75° W 20:32:07 10° N
PSLV R/B 3.2 20:27:14 10° WSW 20:30:07 68° WNW 20:30:07 68° WNW
Cosmos 1452 Rocket 4.0 20:26:27 10° NNW 20:31:37 60° WSW 20:36:46 10° S
Delta 2 Rocket 4.0 20:29:54 10° WNW 20:33:10 33° N 20:33:10 33° N
Cosmos 2221 4.1 20:29:26 10° SSW 20:33:24 36° W 20:37:24 10° NNW
Atlas Centaur 2 2.1 20:30:52 10° W 20:35:39 69° SSW 20:37:32 42° ESE
Cosmos 1605 Rocket 3.9 20:31:46 10° SSE 20:37:42 54° E 20:43:36 10° NNE
Cosmos 2123 Rocket 4.1 20:33:13 10° N 20:39:17 52° E 20:42:54 24° SSE
H-2A R/B 3.1 20:42:45 55° N 20:42:45 55° N 20:45:52 10° N
Cosmos 494 Rocket 3.8 20:40:25 10° S 20:45:29 69° ESE 20:46:05 62° ENE
Cosmos 2333 4.1 20:40:01 10° NNW 20:45:44 72° ENE 20:47:32 45° SE
Cosmos 921 Rocket 4.5 20:43:20 10° NNW 20:47:24 37° W 20:51:23 10° SSW
CZ-4C R/B 3.4 20:43:08 10° WSW 20:47:48 37° NW 20:53:01 10° NNE
Cosmos 2237 Rocket 4.1 20:53:33 10° N 20:55:03 17° NNE 20:55:03 17° NNE
Cosmos 2227 Rocket 2.0 20:54:00 10° SSW 20:59:25 75° SE 20:59:25 75° SE
DELTA 2 R/B (1) 3.7 20:54:34 10° WNW 20:59:55 61° NNE 20:59:55 61° NNE
ALOS 4.2 20:56:07 10° SSW 21:00:09 29° W 21:04:12 10° NW
Cosmos 1300 4.3 21:02:22 10° SSW 21:05:51 33° W 21:06:38 30° NW
Skynet4D Del rocket 4.4 21:05:38 10° W 21:12:33 63° S 21:13:27 59° SSE
IUS-9 SRM-1 4.1 20:49:48 10° WSW 21:12:40 55° S 21:13:27 53° SSE
Hubble Space Telescope 3.0 21:12:37 10° WSW 21:14:05 20° SW 21:14:05 20° SW
COSMOS 2428 3.6 21:19:25 10° NNW 21:24:48 46° WSW 21:26:11 38° SW
Cosmos 2333 Rocket 3.3 21:22:28 10° NNW 21:25:41 35° NNW 21:25:41 35° NNW
Cosmos 2297 Rocket 3.6 21:31:53 10° SSW 21:34:46 30° SW 21:34:46 30° SW
Cosmos 2219 Rocket 4.4 22:04:37 10° NW 22:06:49 21° WNW 22:06:49 21° WNW
